CST,Max TemperatureF,Mean TemperatureF,Min TemperatureF,Max Dew PointF,MeanDew PointF,Min DewpointF,Max Humidity, Mean Humidity, Min Humidity, Max Sea Level PressureIn, Mean Sea Level PressureIn, Min Sea Level PressureIn, Max VisibilityMiles, Mean VisibilityMiles, Min VisibilityMiles, Max Wind SpeedMPH, Mean Wind SpeedMPH, Max Gust SpeedMPH,PrecipitationIn, CloudCover, Events, WindDirDegrees
2012-11-1,71,52,35,43,36,31,93,71,35,30.03,29.99,29.87,10,7,1,14,4,21,0.00,0,,236
2012-11-2,62,50,38,41,36,34,90,63,38,30.03,29.96,29.90,10,10,10,14,6,,0.00,1,,76
2012-11-3,56,47,36,38,36,34,92,68,49,30.21,30.09,29.90,10,9,3,14,8,,0.00,0,,354
2012-11-4,57,44,30,42,37,30,99,76,50,30.26,30.18,30.09,10,7,3,8,3,,0.00,2,Rain,136
2012-11-5,45,44,42,45,43,39,100,98,81,30.11,30.04,29.96,10,5,1,15,9,,0.15,8,Rain,8
2012-11-6,57,48,40,44,40,32,100,85,44,30.10,30.05,29.95,10,8,3,17,7,26,0.01,6,,279
2012-11-7,50,43,36,36,34,32,89,73,54,30.18,30.13,30.04,10,10,9,13,7,,0.00,0,,64
2012-11-8,66,50,35,40,37,34,92,65,37,30.16,30.06,29.94,10,9,0,14,9,,0.03,0,,165
2012-11-9,75,62,48,60,53,40,83,71,59,29.96,29.87,29.80,10,10,10,20,13,25,0.00,1,,183
2012-11-10,75,68,60,57,54,47,90,65,42,29.86,29.80,29.75,10,10,10,25,18,37,0.00,2,Rain,188
2012-11-11,66,48,28,60,44,24,100,91,73,30.24,29.90,29.66,10,8,2,23,14,32,1.52,7,Rain-Thunderstorm,291
2012-11-12,44,34,24,24,22,21,88,66,39,30.46,30.38,30.25,10,10,10,17,8,25,0.00,0,,256
2012-11-13,54,40,25,34,28,21,86,65,42,30.50,30.44,30.37,10,10,10,10,6,,0.00,0,,183
2012-11-14,55,44,33,33,28,25,80,59,34,30.45,30.38,30.31,10,10,10,9,5,,0.00,0,,175
2012-11-15,54,44,33,37,32,24,89,65,41,30.40,30.34,30.30,10,10,10,9,4,,0.00,2,,194
2012-11-16,59,46,32,39,36,32,99,77,44,30.49,30.42,30.39,10,10,10,6,2,,0.00,0,,109
2012-11-17,61,50,38,35,32,28,76,59,34,30.45,30.38,30.32,10,10,10,13,7,,0.00,0,,159
2012-11-18,64,52,39,35,31,28,67,47,31,30.32,30.26,30.19,10,10,10,15,8,,0.00,2,Rain,167
2012-11-19,62,54,46,50,46,34,100,83,48,30.19,30.15,30.08,10,10,10,18,12,22,0.02,4,Rain,196
2012-11-20,62,50,37,49,43,37,100,86,55,30.23,30.18,30.10,10,7,2,9,5,,0.00,0,,305
2012-11-21,67,52,37,50,41,37,100,77,43,30.25,30.17,30.03,10,8,2,15,7,,0.00,0,,186
2012-11-22,70,58,46,55,45,35,77,62,49,30.23,29.98,29.87,10,10,10,28,14,39,0.00,3,,223
2012-11-23,42,34,23,35,20,13,86,55,36,30.45,30.39,30.24,10,10,10,20,11,29,0.00,0,,313
2012-11-24,44,32,19,25,19,14,82,58,38,30.43,30.22,29.95,10,10,10,17,6,24,0.00,2,,203
2012-11-25,55,46,35,33,28,23,84,55,38,30.06,29.96,29.91,10,10,10,18,11,,0.00,0,,339
2012-11-26,41,32,22,30,26,18,97,78,53,30.47,30.25,30.06,10,10,10,22,11,23,0.00,2,,30
2012-11-27,39,26,14,21,17,12,90,69,42,30.51,30.41,30.33,10,10,10,13,5,,0.00,0,,230
2012-11-28,51,38,24,31,26,20,87,66,43,30.45,30.35,30.22,10,10,10,14,6,,0.00,0,,188
2012-11-29,64,48,32,44,35,30,89,63,41,30.21,30.10,30.00,10,10,10,18,10,25,0.01,0,,197
2012-11-30,64,51,38,50,40,32,99,68,48,30.11,30.06,30.03,10,10,10,20,10,,0.00,1,,201